www.pogodaiklimat.ru

Погода и климат >> Архив погоды >> Россия >> Свердловская область >> Ивдель


ПОГОДА в Ивдель

  • Прогноз погоды в Ивдель
  • Монитор погоды в Ивдель
  • Климат города

АРХИВ ПОГОДЫ в Ивдель

Время (UTC), дата Ветер
(напр.,м/с)
 
Видим.   Явления Облачность Т
(С)
Тd
(С)
f
(%)
Тe
(С)
Тes
(С)
Комфортность P
(гПа)
Po
(гПа)
Тmin
(С)
Tmax
(С)
R
(мм)
R24
(мм)
S
(см)
09 10.12 СЗ 2 25 км {ливн. осадки} 4/0
[Ci fib]
-8.9 -12.2 77 -13 -13 1020.3 1008.0
12 10.12 СЗ 1 10 км {ливн. осадки} 5/0
[Ac trans Ci fib]
-11.1 -13.2 84 -13 -13 1022.3 1009.8
15 10.12 СЗ 1 10 км 6/0
[Ac trans Ci fib]
-15.6 -17.4 86 -18 -18 1024.5 1011.8 -7.8 0.0
18 10.12 СЗ 2 10 км {ливн. осадки} 8/8 660 м
[Cb cap]
-17.7 -19.8 84 -23 -23 1026.6 1013.8
21 10.12 СЗ 2 20 км 9/9 750 м
[Cb cap]
-15.7 -18.1 82 -21 -21 1027.9 1015.1
00 11.12 СЗ 1 20 км {ливн. осадки} 3/0
[Ci fib]
-16.8 -19.3 81 -20 -20 1029.3 1016.4
03 11.12 СЗ 2 20 км 1/0
[Ci fib]
-18.0 -20.7 79 -23 -23 1031.0 1018.1 -18.1 0.0 17
06 11.12 СЗ 1 50 км 1/0
[Ci fib]
-19.2 -21.8 80 -22 -22 1032.5 1019.5 -19.9
09 11.12 СЗ 1 50 км 3/0
[Ac trans Ci fib]
-16.0 -19.1 77 -19 -18 1032.7 1019.9
12 11.12 СЗ 1 10 км 9/0
[Ac trans Ci fib]
-20.3 -22.9 80 -23 -23 1033.9 1020.8
15 11.12 СЗ 2 10 км слабый снег 10/0
[As trans]
-19.6 -22.5 78 -25 -25 1034.7 1021.6 -15.9 0.0
18 11.12 штиль 0 10 км слабый снег 10/0
[As trans]
-23.5 -26.4 77 -24 -24 1034.7 1021.4
21 11.12 штиль 0 10 км слабый снег 10/0
[As trans]
-25.0 -28.1 75 -25 -25 1034.7 1021.4
00 12.12 штиль 0 20 км {снег} ясно -26.6 -29.9 74 -27 -27 1034.4 1021.0
03 12.12 штиль 0 20 км ясно -27.5 -30.9 73 -28 -28 1034.7 1021.2 -27.6 0.2 17
06 12.12 штиль 0 50 км 3/0
[Ci fib]
-26.9 -30.2 73 -27 -27 1035.1 1021.7 -28.4
09 12.12 ЮВ 1 35 км 1/0
[Ci fib]
-22.4 -26.0 72 -26 -26 1034.7 1021.5
12 12.12 штиль 0 10 км 1/0
[Ci fib]
-25.5 -28.7 74 -26 -26 1035.0 1021.6
15 12.12 штиль 0 10 км 1/0
[Ci fib]
-26.9 -30.4 72 -27 -27 1035.4 1021.9 -21.7
18 12.12 штиль 0 10 км 3/0
[Ci fib]
-27.8 -31.3 72 -28 -28 1035.6 1022.1
21 12.12 штиль 0 10 км 1/0
[Ci fib]
-28.6 -32.3 70 -29 -29 1035.7 1022.2
00 13.12 штиль 0 20 км 1/0
[Ci fib]
-28.7 -32.3 71 -29 -29 1035.8 1022.3
03 13.12 штиль 0 20 км 1/0
[Ci fib]
-28.0 -31.7 70 -28 -28 1035.7 1022.2 -29.0 17
06 13.12 штиль 0 30 км 1/0
[Ci fib]
-25.9 -29.3 73 -26 -26 1035.3 1021.9
09 13.12 штиль 0 45 км 5/0
[Ac lent Ci fib]
-22.1 -26.0 71 -22 -22 1034.3 1021.1
12 13.12 штиль 0 10 км 8/8 1000 м
[Sc]
-22.7 -25.7 76 -23 -23 1033.4 1020.2
15 13.12 штиль 0 10 км 6/3 1000 м
[Sc Ci fib]
-19.8 -22.6 78 -20 -20 1031.3 1018.3 -19.1
18 13.12 штиль 0 10 км 8/0
[Ac trans Ci fib]
-20.9 -23.8 77 -21 -21 1028.8 1015.8
21 13.12 штиль 0 10 км 9/0
[Ac trans Ci fib]
-15.4 -17.5 84 -15 -15 1026.3 1013.6
00 14.12 ЮВ 3 10 км 10/10 1000 м
[Sc]
-7.7 -9.5 87 -13 -13 1023.5 1011.2
03 14.12 ЮВ 4
{10}
10 км слабый ливневой снег 10/10 600 м
[Cb cap]
-5.9 -7.8 86 -12 -12 1021.0 1008.8 -21.3 0.0 17
06 14.12 Ю 1 35 км {ливн. осадки} 9/8 600 м
[Cb cap Ac trans]
-5.1 -6.9 87 -7 -7 1021.4 1009.2
09 14.12 ЮВ 2 30 км 9/6 600 м
[Cb cap Ac trans]
-5.0 -6.6 89 -9 -9 1023.0 1010.8
12 14.12 Ю 2 10 км 9/4 1000 м
[Sc Ac trans]
-5.4 -6.6 91 -10 -10 1024.6 1012.4
15 14.12 ЮВ 2 10 км 10/10 1000 м
[Sc]
-4.0 -5.8 87 -8 -8 1025.0 1012.8 -4.0 0.0
18 14.12 Ю 2 10 км слабый ливневой снег 10/10 570 м
[Cb cap]
-4.0 -5.6 89 -8 -8 1024.7 1012.5
21 14.12 Ю 1 10 км слабый ливневой снег 10/10 600 м
[Cb cap]
-4.1 -5.8 88 -6 -6 1024.5 1012.4
00 15.12 ЮВ 2 10 км {ливн. осадки} 10/10 1260 м
[Sc]
-4.1 -6.2 85 -8 -8 1024.4 1012.2
03 15.12 штиль 0 10 км 10/10 1080 м
[Sc]
-4.6 -6.2 89 -6 -6 1024.4 1012.2 -4.6 0.6 18
06 15.12 штиль 0 50 км 9/3 1000 м
[Sc Ac As]
-6.2 -7.5 90 -7 -7 1024.4 1012.2 -6.6
09 15.12 Ю 3 50 км 9/5 1000 м
[Sc Ac trans]
0.0 -5.0 69 -4 -4 1024.5 1012.5
12 15.12 Ю 3 10 км 9/3 1000 м
[Sc Ac trans]
-0.9 -6.3 67 -5 -5 1024.8 1012.8
15 15.12 Ю 2 10 км 9/4 1000 м
[Sc Ac trans]
-0.8 -6.3 66 -4 -4 1025.0 1013.0 +0.1
18 15.12 Ю 2 10 км 9/3 1000 м
[Sc Ac trans]
-1.2 -7.8 61 -5 -5 1025.4 1013.3
21 15.12 ЮВ 1 10 км 9/4 1000 м
[Sc Ac trans]
-2.2 -7.1 69 -4 -4 1026.5 1014.4
00 16.12 ЮВ 2 10 км 9/6 1000 м
[Sc Ac trans]
-2.7 -6.3 76 -7 -7 1027.3 1015.1
03 16.12 Ю 2 10 км 9/3 1000 м
[Sc Ac trans]
-2.5 -5.8 78 -6 -6 1027.5 1015.4 -3.1 17
06 16.12 Ю 2 50 км 10/3 1000 м
[Sc Ac As]
-1.9 -5.5 76 -6 -6 1028.8 1016.7
09 16.12 Ю 2 50 км 10/8 1000 м
[Sc Ac As]
-0.8 -5.0 73 -4 -4 1029.3 1017.2
12 16.12 Ю 1 10 км 10/5 1000 м
[Sc Ac As]
-1.9 -4.7 81 -4 -4 1030.3 1018.1
15 16.12 штиль 0 10 км 9/5 1000 м
[Sc Ac trans Ci fib]
-4.8 -8.2 77 -6 -6 1031.1 1018.9 -0.5
18 16.12 штиль 0 10 км 9/4 1000 м
[Sc Ac trans Ci fib]
-10.4 -12.1 87 -11 -11 1030.8 1018.3
21 16.12 СВ 1 10 км 10/4 1000 м
[Sc Ac trans]
-11.7 -13.5 86 -14 -14 1030.3 1017.7
00 17.12 З 2 10 км 9/5 1000 м
[Sc Ac trans Ci fib]
-9.0 -10.8 87 -14 -14 1029.7 1017.3
03 17.12 В 2 10 км 9/5 1000 м
[Sc Ac trans Ci fib]
-8.9 -11.2 83 -13 -13 1029.9 1017.4 -11.7 17
06 17.12 штиль 0 50 км 9/5 1000 м
[Sc Ac trans Ci fib]
-10.2 -12.0 87 -11 -11 1030.6 1018.1

 

Местоположение метеостанции Ивдель (Свердловская область, Россия): широта 60.68 долгота 60.45 высота над уровнем моря 94 м.

В архиве по умолчанию представлена погода в Ивдель за последнюю неделю. Архивные данные за месяц целиком и за предыдущие месяцы, начиная с января 2011 года, Вы можете получить, выбрав интересующий диапазон дат из раскрывающегося списка и нажав кнопку "Ввод!".

Внимание! Время в таблицах - всемирное. Для получения местного времени необходимо прибавить поправку, которая в Ивдель равна 5 ч.

Смотрите также архив погоды в соседних городах и на ближайших метеорологических станциях:

Погода в Североуральске (Свердловская область, Россия) (56 км)
Погода в Бурмантово (Свердловская область, Россия) (67 км)
Погода в Атымье (Свердловская область, Россия) (103 км)
Погода в Карпинске (Свердловская область, Россия) (106 км)
Погода в Серове (Свердловская область, Россия) (120 км)
Погода в Кытлыме (Свердловская область, Россия) (148 км)
Погода в Югорске (Ханты-Мансийский АО, Россия) (172 км)
Погода в Гари (Свердловская область, Россия) (174 км)
Погода в Агирише (Ханты-Мансийский АО, Россия) (195 км)
Погода в Няксимволе (Ханты-Мансийский АО, Россия) (196 км)

Пояснения к столбцам:

Ветер - указаны скорость ветра в м/с - средняя за 10 мин, порывы в срок и между сроками (в фигурных скобках) и направление, откуда дует ветер: С - северный, СВ - северо-восточный, В - восточный, ЮВ - юго-восточный, Ю - южный, ЮЗ - юго-западный, З - западный, СЗ - северо-западный.
Видимость - горизонтальная дальность видимости в метрах или километрах. При видимости от 1 до 10 км при отсутствии осадков обычно наблюдается дымка, при ухудшении видимости до 1 км и менее - туман. В сухую погоду видимость может ухудшаться дымом, пылью или мглою.
Явления - указаны атмосферные явления, наблюдавшиеся в срок или в последний час перед сроком; фигурными скобками обозначены явления, наблюдавшиеся между сроками (за 1-3 часа до срока); квадратными скобками обозначены град или гололедные отложения с указанием их диаметра в мм.
Облачность - указаны через наклонную черту общая и нижняя облачность в баллах и высота нижней границы облаков в метрах; квадратными скобками обозначены формы облаков: Ci - перистые, Cs - перисто-слоистые, Cc - перисто-кучевые, Ac - высококучевые, As - высокослоистые, Sc - слоисто-кучевые, Ns - слоисто-дождевые, Cu - кучевые, Cb - кучево-дождевые. Подробнее классификацию облаков см. в Атласе облаков (PDF).
T - Температура воздуха - температура, измеренная на высоте 2 м над землей.
Td - Температура точки росы - температура, при понижении до которой содержащийся в воздухе водяной пар достигнет насыщения.
f - Относительная влажность воздуха - влажноcть воздуха, измеренная на высоте 2 м над землей.
Te - Эффективная температура - температура, которую ощущает одетый по сезону человек в тени. Характеристика душности погоды. При расчете учитывается влияние влажности воздуха и скорости ветра на теплоощущения человека.
Tes - Эффективная температура на солнце - температура, которую ощущает человек, с поправкой на солнечный нагрев. Характеристика знойности погоды. Зависит от высоты солнца над горизонтом, облачности и скорости ветра. Ночью, в пасмурную погоду, а также при ветре 12 м/с и более поправка равна нулю.
P - Атмосферное давление - приведенное к уровню моря атмосферное давление.
Po - Атмосферное давление - измеренное на уровне метеостанции атмосферное давление.
Tmin - Минимальная температура - минимум температуры воздуха на высоте 2 м над землей.
Tmax - Максимальная температура - максимум температуры воздуха на высоте 2 м над землей.
R - Количество осадков - Количество выпавших осадков за период времени, мм. При наведении курсора мыши на число - период времени, за который выпало указанное количество осадков.
R24 - Количество осадков - Количество выпавших осадков за 24 часа, мм.
S - Снежный покров - Высота снежного покрова, см. При наведении курсора мыши на число - состояние снежного покрова и степень покрытия местности в баллах.